WZZ2PH LWSK-LIPH

Flight info

Callsign WZZ2PH
Flight time 1h 31m
Altitude 38000
Route GOSTI DCT MAVAR DCT LABIN/N0344F180 L614 CHI N503 INBUT
Aircraft A321/M-SDE1E2E3FGIJ1J4RWXY/LB1

Departure

Time 2026-04-22 18:51
Airport Skopje International Airport (LWSK)

Arrival

Time 2026-04-22 20:23
Airport Treviso Airport (LIPH)
Time Latitude Longitude Altitude Speed Heading
2026-04-22 18:05 41.96068 21.62586 793 ft 0 kts 77°
2026-04-22 18:42 41.96065 21.62570 793 ft 3 kts 76°
2026-04-22 18:42 41.96055 21.62541 793 ft 4 kts 29°
2026-04-22 18:42 41.96031 21.62537 793 ft 4 kts 346°
2026-04-22 18:43 41.96021 21.62540 793 ft 1 kts 346°
2026-04-22 18:43 41.96021 21.62541 793 ft 0 kts 346°
2026-04-22 18:46 41.96028 21.62538 793 ft 2 kts 346°
2026-04-22 18:46 41.96055 21.62529 793 ft 6 kts 346°
2026-04-22 18:46 41.96106 21.62512 793 ft 9 kts 344°
2026-04-22 18:46 41.96130 21.62456 793 ft 8 kts 273°
2026-04-22 18:47 41.96180 21.62403 791 ft 11 kts 343°
2026-04-22 18:47 41.96257 21.62378 792 ft 12 kts 345°
2026-04-22 18:47 41.96345 21.62346 792 ft 14 kts 345°
2026-04-22 18:47 41.96444 21.62311 793 ft 16 kts 345°
2026-04-22 18:48 41.96553 21.62273 793 ft 17 kts 345°
2026-04-22 18:48 41.96673 21.62230 793 ft 18 kts 345°
2026-04-22 18:48 41.96802 21.62185 794 ft 20 kts 345°
2026-04-22 18:48 41.96917 21.62091 793 ft 21 kts 308°
2026-04-22 18:49 41.96972 21.61997 791 ft 0 kts 308°
2026-04-22 18:50 41.96986 21.61971 791 ft 8 kts 308°
2026-04-22 18:50 41.97015 21.61868 790 ft 13 kts 262°
2026-04-22 18:50 41.96953 21.61866 790 ft 10 kts 163°
2026-04-22 18:51 41.96939 21.61872 790 ft 7 kts 163°
2026-04-22 18:51 41.96618 21.61984 791 ft 90 kts 165°
2026-04-22 18:51 41.95768 21.62278 789 ft 160 kts 166°
2026-04-22 18:51 41.94638 21.62667 1432 ft 164 kts 167°
2026-04-22 18:52 41.93556 21.63034 2294 ft 159 kts 168°
2026-04-22 18:52 41.92450 21.63418 2729 ft 177 kts 166°
2026-04-22 18:52 41.91180 21.63858 3105 ft 200 kts 166°
2026-04-22 18:52 41.89759 21.64357 3460 ft 222 kts 164°
2026-04-22 18:53 41.88184 21.64909 3732 ft 247 kts 165°
2026-04-22 18:53 41.86436 21.65520 4205 ft 269 kts 164°
2026-04-22 18:53 41.84598 21.66154 5064 ft 276 kts 164°
2026-04-22 18:53 41.82716 21.66803 5932 ft 282 kts 163°
2026-04-22 18:54 41.80825 21.67547 6828 ft 285 kts 154°
2026-04-22 18:54 41.79222 21.69062 7720 ft 282 kts 129°
2026-04-22 18:54 41.78229 21.71249 8645 ft 280 kts 107°
2026-04-22 18:54 41.77955 21.73808 9572 ft 279 kts 84°
2026-04-22 18:55 41.78452 21.76314 10399 ft 282 kts 62°
2026-04-22 18:55 41.79659 21.78382 11149 ft 287 kts 38°
2026-04-22 18:55 41.81418 21.79655 11867 ft 292 kts 14°
2026-04-22 18:55 41.83432 21.79854 12592 ft 294 kts 349°
2026-04-22 18:56 41.85340 21.78908 13329 ft 295 kts 324°
2026-04-22 18:56 41.86798 21.76977 14026 ft 300 kts 303°
2026-04-22 18:56 41.87980 21.74597 14239 ft 322 kts 301°
2026-04-22 18:56 41.89231 21.71998 14611 ft 337 kts 301°
2026-04-22 18:57 41.90506 21.69329 15304 ft 341 kts 301°
2026-04-22 18:57 41.91648 21.66543 16106 ft 341 kts 291°
2026-04-22 18:57 41.92312 21.63496 16939 ft 341 kts 279°
2026-04-22 18:57 41.92467 21.60324 17782 ft 342 kts 268°
2026-04-22 18:58 41.92108 21.57166 18580 ft 344 kts 256°
2026-04-22 18:58 41.91398 21.54087 19267 ft 346 kts 255°
2026-04-22 18:58 41.90685 21.51050 20006 ft 346 kts 255°
2026-04-22 18:58 41.89961 21.47964 20730 ft 347 kts 255°
2026-04-22 18:59 41.89234 21.44868 21465 ft 348 kts 255°
2026-04-22 18:59 41.88504 21.41765 22192 ft 350 kts 255°
2026-04-22 18:59 41.87769 21.38648 22921 ft 351 kts 255°
2026-04-22 18:59 41.87030 21.35523 23613 ft 352 kts 255°
2026-04-22 19:00 41.86288 21.32385 24175 ft 353 kts 255°
2026-04-22 19:00 41.85544 21.29236 24700 ft 355 kts 255°
2026-04-22 19:00 41.84795 21.26075 25234 ft 356 kts 256°
2026-04-22 19:00 41.84050 21.22945 25759 ft 358 kts 256°
2026-04-22 19:01 41.83290 21.19757 26279 ft 360 kts 256°
2026-04-22 19:01 41.82527 21.16558 26797 ft 360 kts 256°
2026-04-22 19:01 41.81764 21.13363 27360 ft 360 kts 257°
2026-04-22 19:01 41.81002 21.10161 27847 ft 362 kts 257°
2026-04-22 19:02 41.80230 21.06942 28341 ft 363 kts 257°
2026-04-22 19:02 41.79449 21.03715 28820 ft 365 kts 257°
2026-04-22 19:02 41.78661 21.00471 29273 ft 367 kts 257°
2026-04-22 19:02 41.77879 20.97256 29732 ft 369 kts 257°
2026-04-22 19:03 41.77081 20.93978 30187 ft 371 kts 257°
2026-04-22 19:03 41.76279 20.90684 30522 ft 373 kts 257°
2026-04-22 19:03 41.75469 20.87368 30823 ft 376 kts 257°
2026-04-22 19:03 41.74650 20.84027 31110 ft 379 kts 257°
2026-04-22 19:04 41.73823 20.80659 31418 ft 382 kts 257°
2026-04-22 19:04 41.72992 20.77271 31756 ft 384 kts 257°
2026-04-22 19:04 41.72156 20.73872 32197 ft 384 kts 257°
2026-04-22 19:04 41.71332 20.70530 32636 ft 382 kts 257°
2026-04-22 19:05 41.70499 20.67160 33110 ft 381 kts 257°
2026-04-22 19:05 41.69665 20.63792 33545 ft 381 kts 257°
2026-04-22 19:05 41.68834 20.60420 33928 ft 381 kts 258°
2026-04-22 19:05 41.68310 20.56978 34256 ft 376 kts 269°
2026-04-22 19:06 41.68354 20.53496 34479 ft 375 kts 279°
2026-04-22 19:06 41.68957 20.50106 34778 ft 376 kts 289°
2026-04-22 19:06 41.70073 20.46934 35058 ft 380 kts 300°
2026-04-22 19:07 41.73009 20.41070 35647 ft 383 kts 301°
2026-04-22 19:07 41.74500 20.38109 35938 ft 385 kts 302°
2026-04-22 19:07 41.75997 20.35131 36224 ft 386 kts 302°
2026-04-22 19:07 41.77496 20.32142 36463 ft 388 kts 302°
2026-04-22 19:08 41.79004 20.29128 36652 ft 390 kts 302°
2026-04-22 19:08 41.80514 20.26104 36904 ft 391 kts 302°
2026-04-22 19:08 41.82028 20.23062 37152 ft 393 kts 302°
2026-04-22 19:08 41.83554 20.20000 37294 ft 397 kts 302°
2026-04-22 19:09 41.85070 20.16957 37488 ft 399 kts 302°
2026-04-22 19:09 41.86615 20.13859 37699 ft 400 kts 302°
2026-04-22 19:09 41.88165 20.10749 37952 ft 401 kts 303°
2026-04-22 19:09 41.89716 20.07635 38061 ft 402 kts 303°
2026-04-22 19:10 41.91265 20.04515 38071 ft 401 kts 303°
2026-04-22 19:10 41.94356 19.98278 38073 ft 401 kts 302°
2026-04-22 19:11 41.97417 19.92087 38068 ft 401 kts 303°
2026-04-22 19:11 42.00499 19.85845 38079 ft 401 kts 302°
2026-04-22 19:12 42.03575 19.79587 38086 ft 401 kts 303°
2026-04-22 19:12 42.06648 19.73323 38090 ft 401 kts 303°
2026-04-22 19:13 42.09723 19.67064 38090 ft 401 kts 302°
2026-04-22 19:13 42.12777 19.60838 38112 ft 401 kts 303°
2026-04-22 19:14 42.15845 19.54557 38107 ft 401 kts 303°
2026-04-22 19:14 42.18911 19.48266 38102 ft 402 kts 303°
2026-04-22 19:15 42.21458 19.43028 38098 ft 401 kts 303°
2026-04-22 19:15 42.25012 19.35712 38104 ft 401 kts 303°
2026-04-22 19:16 42.28067 19.29413 38107 ft 401 kts 303°
2026-04-22 19:16 42.31115 19.23106 38107 ft 401 kts 302°
2026-04-22 19:17 42.34157 19.16794 38107 ft 401 kts 302°
2026-04-22 19:17 42.37193 19.10475 38090 ft 401 kts 303°
2026-04-22 19:18 42.40210 19.04197 38099 ft 400 kts 303°
2026-04-22 19:18 42.43247 18.97876 38123 ft 400 kts 303°
2026-04-22 19:19 42.46278 18.91542 38105 ft 401 kts 303°
2026-04-22 19:19 42.49307 18.85186 38099 ft 402 kts 303°
2026-04-22 19:20 42.52321 18.78867 38091 ft 402 kts 303°
2026-04-22 19:20 42.55355 18.72492 38075 ft 402 kts 303°
2026-04-22 19:21 42.58381 18.66107 38078 ft 402 kts 303°
2026-04-22 19:21 42.61396 18.59720 38085 ft 402 kts 303°
2026-04-22 19:22 42.64394 18.53370 38068 ft 402 kts 303°
2026-04-22 19:22 42.67416 18.46974 38064 ft 402 kts 303°
2026-04-22 19:23 42.70429 18.40570 38051 ft 402 kts 303°
2026-04-22 19:23 42.73436 18.34161 38069 ft 401 kts 303°
2026-04-22 19:24 42.76415 18.27787 38084 ft 403 kts 303°
2026-04-22 19:24 42.79426 18.21345 38078 ft 403 kts 303°
2026-04-22 19:25 42.82439 18.14893 38079 ft 404 kts 303°
2026-04-22 19:25 42.85447 18.08422 38086 ft 404 kts 303°
2026-04-22 19:26 42.88450 18.01950 38097 ft 404 kts 302°
2026-04-22 19:26 42.91434 17.95507 38099 ft 404 kts 302°
2026-04-22 19:27 42.94437 17.89012 38103 ft 405 kts 302°
2026-04-22 19:27 42.97434 17.82513 38109 ft 405 kts 302°
2026-04-22 19:28 43.00429 17.76000 38113 ft 405 kts 302°
2026-04-22 19:28 43.03397 17.69531 38101 ft 405 kts 302°
2026-04-22 19:29 43.06389 17.63006 38114 ft 405 kts 303°
2026-04-22 19:29 43.09385 17.56463 38110 ft 406 kts 303°
2026-04-22 19:30 43.11869 17.51005 38120 ft 407 kts 302°
2026-04-22 19:30 43.15340 17.43358 38119 ft 407 kts 302°
2026-04-22 19:31 43.18335 17.36771 38107 ft 407 kts 303°
2026-04-22 19:31 43.21331 17.30182 38123 ft 407 kts 302°
2026-04-22 19:32 43.24315 17.23584 38133 ft 407 kts 302°
2026-04-22 19:32 43.27270 17.17017 38133 ft 407 kts 302°
2026-04-22 19:33 43.30240 17.10402 38137 ft 407 kts 302°
2026-04-22 19:33 43.33216 17.03786 38158 ft 407 kts 303°
2026-04-22 19:34 43.36188 16.97150 38151 ft 408 kts 303°
2026-04-22 19:34 43.39139 16.90552 38143 ft 408 kts 303°
2026-04-22 19:35 43.42106 16.83902 38144 ft 408 kts 303°
2026-04-22 19:35 43.44567 16.78358 38152 ft 409 kts 303°
2026-04-22 19:36 43.48028 16.70556 38146 ft 409 kts 303°
2026-04-22 19:36 43.50973 16.63920 38137 ft 409 kts 303°
2026-04-22 19:37 43.53930 16.57240 38153 ft 408 kts 302°
2026-04-22 19:37 43.56876 16.50548 38158 ft 408 kts 302°
2026-04-22 19:38 43.59817 16.43855 38154 ft 408 kts 302°
2026-04-22 19:38 43.62758 16.37158 38155 ft 408 kts 302°
2026-04-22 19:39 43.65675 16.30497 38137 ft 408 kts 302°
2026-04-22 19:39 43.68600 16.23783 38151 ft 408 kts 302°
2026-04-22 19:40 43.71534 16.17058 38152 ft 408 kts 302°
2026-04-22 19:40 43.74463 16.10331 38155 ft 409 kts 302°
2026-04-22 19:41 43.77369 16.03632 38162 ft 409 kts 302°
2026-04-22 19:41 43.80287 15.96888 38145 ft 408 kts 302°
2026-04-22 19:42 43.83199 15.90143 38163 ft 408 kts 302°
2026-04-22 19:42 43.86102 15.83390 38164 ft 408 kts 302°
2026-04-22 19:43 43.90431 15.73305 38189 ft 408 kts 302°
2026-04-22 19:43 43.93333 15.66544 38188 ft 408 kts 302°
2026-04-22 19:44 43.96238 15.59760 38167 ft 409 kts 302°
2026-04-22 19:44 43.99134 15.52957 38183 ft 409 kts 302°
2026-04-22 19:45 44.02024 15.46143 38185 ft 410 kts 302°
2026-04-22 19:45 44.04899 15.39365 38185 ft 410 kts 302°
2026-04-22 19:46 44.07791 15.32538 38167 ft 410 kts 302°
2026-04-22 19:46 44.10679 15.25706 38172 ft 410 kts 302°
2026-04-22 19:47 44.13555 15.18853 38180 ft 410 kts 302°
2026-04-22 19:47 44.16403 15.12042 38186 ft 410 kts 302°
2026-04-22 19:48 44.19282 15.05182 38206 ft 410 kts 302°
2026-04-22 19:48 44.22163 14.98319 38187 ft 411 kts 302°
2026-04-22 19:49 44.25042 14.91425 38186 ft 412 kts 302°
2026-04-22 19:49 44.27900 14.84567 38190 ft 412 kts 302°
2026-04-22 19:50 44.30771 14.77642 38197 ft 412 kts 302°
2026-04-22 19:50 44.33642 14.70708 38200 ft 412 kts 302°
2026-04-22 19:51 44.36512 14.63767 38204 ft 412 kts 302°
2026-04-22 19:51 44.39355 14.56868 38205 ft 412 kts 302°
2026-04-22 19:52 44.42216 14.49912 38211 ft 412 kts 301°
2026-04-22 19:52 44.45066 14.42945 38212 ft 413 kts 301°
2026-04-22 19:53 44.47914 14.35973 38219 ft 412 kts 302°
2026-04-22 19:53 44.50766 14.28996 38214 ft 413 kts 302°
2026-04-22 19:54 44.53593 14.22059 38215 ft 413 kts 302°
2026-04-22 19:54 44.56437 14.15061 38213 ft 413 kts 302°
2026-04-22 19:55 44.59274 14.08051 38216 ft 413 kts 301°
2026-04-22 19:55 44.62111 14.01040 38212 ft 413 kts 301°
2026-04-22 19:56 44.64922 13.94062 38220 ft 413 kts 301°
2026-04-22 19:56 44.67749 13.87027 37994 ft 415 kts 301°
2026-04-22 19:57 44.69176 13.83471 37232 ft 418 kts 301°
2026-04-22 19:57 44.70603 13.79912 36614 ft 418 kts 301°
2026-04-22 19:57 44.72030 13.76344 35972 ft 419 kts 301°
2026-04-22 19:57 44.73460 13.72768 35300 ft 419 kts 301°
2026-04-22 19:58 44.74878 13.69214 34856 ft 414 kts 301°
2026-04-22 19:58 44.76279 13.65696 34421 ft 411 kts 301°
2026-04-22 19:58 44.77652 13.62244 33915 ft 408 kts 301°
2026-04-22 19:58 44.79027 13.58782 33449 ft 403 kts 301°
2026-04-22 19:59 44.80383 13.55359 32990 ft 398 kts 301°
2026-04-22 20:00 44.88142 13.35756 30378 ft 367 kts 302°
2026-04-22 20:00 44.89374 13.32630 29919 ft 363 kts 302°
2026-04-22 20:01 44.90587 13.29546 29510 ft 356 kts 302°
2026-04-22 20:01 44.91778 13.26511 29114 ft 351 kts 302°
2026-04-22 20:01 44.92952 13.23519 28727 ft 346 kts 302°
2026-04-22 20:01 44.94110 13.20563 28352 ft 342 kts 302°
2026-04-22 20:02 44.95253 13.17642 28003 ft 338 kts 302°
2026-04-22 20:02 44.96383 13.14756 27634 ft 334 kts 302°
2026-04-22 20:02 44.97499 13.11905 27277 ft 330 kts 302°
2026-04-22 20:02 44.98406 13.08980 26896 ft 330 kts 292°
2026-04-22 20:03 44.98948 13.05838 26550 ft 330 kts 284°
2026-04-22 20:03 44.99282 13.02646 26189 ft 327 kts 284°
2026-04-22 20:03 44.99619 12.99474 25823 ft 326 kts 284°
2026-04-22 20:03 44.99960 12.96313 25458 ft 325 kts 284°
2026-04-22 20:04 45.00301 12.93169 25078 ft 323 kts 284°
2026-04-22 20:04 45.00640 12.90031 24704 ft 322 kts 284°
2026-04-22 20:04 45.00976 12.86905 24332 ft 321 kts 284°
2026-04-22 20:04 45.01308 12.83785 23957 ft 321 kts 284°
2026-04-22 20:05 45.01635 12.80718 23552 ft 319 kts 284°
2026-04-22 20:05 45.01966 12.77618 23151 ft 319 kts 284°
2026-04-22 20:05 45.02296 12.74523 22765 ft 318 kts 284°
2026-04-22 20:05 45.02624 12.71440 22359 ft 317 kts 284°
2026-04-22 20:06 45.02948 12.68370 21993 ft 315 kts 284°
2026-04-22 20:06 45.03269 12.65310 21612 ft 314 kts 284°
2026-04-22 20:06 45.03586 12.62260 21219 ft 313 kts 284°
2026-04-22 20:06 45.03904 12.59220 20831 ft 312 kts 284°
2026-04-22 20:07 45.04221 12.56189 20448 ft 311 kts 283°
2026-04-22 20:07 45.04537 12.53163 20059 ft 310 kts 283°
2026-04-22 20:07 45.04848 12.50189 19679 ft 310 kts 283°
2026-04-22 20:07 45.05161 12.47179 19283 ft 309 kts 283°
2026-04-22 20:08 45.05472 12.44176 18898 ft 308 kts 283°
2026-04-22 20:08 45.05779 12.41177 18513 ft 308 kts 283°
2026-04-22 20:08 45.06083 12.38186 18093 ft 307 kts 283°
2026-04-22 20:08 45.06388 12.35204 17701 ft 306 kts 283°
2026-04-22 20:09 45.06754 12.32257 17311 ft 302 kts 290°
2026-04-22 20:09 45.07498 12.29514 16941 ft 296 kts 302°
2026-04-22 20:09 45.08594 12.27134 16575 ft 291 kts 313°
2026-04-22 20:09 45.10005 12.25117 16215 ft 287 kts 324°
2026-04-22 20:10 45.11594 12.23428 15851 ft 286 kts 326°
2026-04-22 20:10 45.13188 12.21746 15491 ft 285 kts 326°
2026-04-22 20:10 45.14777 12.20064 15135 ft 285 kts 326°
2026-04-22 20:10 45.16359 12.18385 14778 ft 284 kts 326°
2026-04-22 20:11 45.17936 12.16708 14411 ft 283 kts 326°
2026-04-22 20:11 45.19509 12.15035 14060 ft 282 kts 326°
2026-04-22 20:11 45.21077 12.13367 13686 ft 281 kts 326°
2026-04-22 20:11 45.22615 12.11733 13323 ft 280 kts 326°
2026-04-22 20:12 45.24167 12.10083 12981 ft 278 kts 326°
2026-04-22 20:12 45.25706 12.08443 12633 ft 276 kts 326°
2026-04-22 20:12 45.26719 12.07363 12408 ft 274 kts 326°
2026-04-22 20:12 45.28750 12.05192 11931 ft 272 kts 326°
2026-04-22 20:13 45.30257 12.03584 11582 ft 270 kts 326°
2026-04-22 20:13 45.31759 12.01986 11238 ft 269 kts 326°
2026-04-22 20:13 45.33252 12.00396 10894 ft 267 kts 326°
2026-04-22 20:13 45.34716 11.98837 10552 ft 266 kts 326°
2026-04-22 20:14 45.36191 11.97263 10295 ft 263 kts 326°
2026-04-22 20:14 45.37679 11.95678 10208 ft 271 kts 326°
2026-04-22 20:14 45.39177 11.94084 9871 ft 269 kts 326°
2026-04-22 20:14 45.40672 11.92492 9471 ft 268 kts 326°
2026-04-22 20:15 45.42160 11.90903 9083 ft 267 kts 326°
2026-04-22 20:15 45.43645 11.89309 8677 ft 267 kts 326°
2026-04-22 20:15 45.45130 11.87711 8275 ft 268 kts 326°
2026-04-22 20:15 45.46598 11.86130 7877 ft 268 kts 326°
2026-04-22 20:16 45.48091 11.84524 7477 ft 269 kts 326°
2026-04-22 20:16 45.49589 11.82913 7073 ft 270 kts 325°
2026-04-22 20:16 45.51110 11.81394 6663 ft 263 kts 337°
2026-04-22 20:16 45.52849 11.80927 6089 ft 256 kts 10°
2026-04-22 20:17 45.54447 11.81929 5451 ft 253 kts 44°
2026-04-22 20:17 45.55374 11.83964 5091 ft 242 kts 69°
2026-04-22 20:17 45.55964 11.86170 4789 ft 234 kts 70°
2026-04-22 20:17 45.56535 11.88316 4434 ft 227 kts 69°
2026-04-22 20:18 45.57088 11.90376 4141 ft 218 kts 69°
2026-04-22 20:18 45.57618 11.92347 3865 ft 212 kts 69°
2026-04-22 20:18 45.58131 11.94256 3592 ft 199 kts 69°
2026-04-22 20:18 45.58614 11.96055 3312 ft 189 kts 69°
2026-04-22 20:19 45.59072 11.97762 3070 ft 180 kts 69°
2026-04-22 20:19 45.59508 11.99391 2824 ft 172 kts 69°
2026-04-22 20:19 45.59928 12.00956 2598 ft 166 kts 69°
2026-04-22 20:19 45.60333 12.02468 2377 ft 160 kts 69°
2026-04-22 20:20 45.60716 12.03902 2176 ft 151 kts 69°
2026-04-22 20:20 45.61079 12.05260 1972 ft 147 kts 69°
2026-04-22 20:20 45.61442 12.06618 1773 ft 146 kts 69°
2026-04-22 20:20 45.61803 12.07969 1571 ft 145 kts 69°
2026-04-22 20:21 45.62162 12.09315 1372 ft 145 kts 69°
2026-04-22 20:21 45.62519 12.10651 1183 ft 143 kts 69°
2026-04-22 20:21 45.62872 12.11976 1001 ft 142 kts 69°
2026-04-22 20:21 45.63222 12.13290 809 ft 141 kts 69°
2026-04-22 20:22 45.63566 12.14594 627 ft 140 kts 69°
2026-04-22 20:22 45.63914 12.15864 464 ft 139 kts 66°
2026-04-22 20:22 45.64251 12.17158 248 ft 138 kts 68°
2026-04-22 20:22 45.64590 12.18439 86 ft 136 kts 68°
2026-04-22 20:23 45.64893 12.19564 60 ft 102 kts 69°
2026-04-22 20:23 45.65084 12.20285 60 ft 52 kts 69°
2026-04-22 20:23 45.65189 12.20683 54 ft 24 kts 69°
2026-04-22 20:23 45.65246 12.20794 61 ft 5 kts 351°
2026-04-22 20:24 45.65295 12.20763 57 ft 9 kts 337°
2026-04-22 20:24 45.65357 12.20728 58 ft 7 kts 339°
2026-04-22 20:24 45.65379 12.20676 59 ft 7 kts 256°
2026-04-22 20:24 45.65375 12.20659 56 ft 2 kts 253°
2026-04-22 20:25 45.65364 12.20613 62 ft 7 kts 249°
2026-04-22 20:25 45.65343 12.20532 56 ft 10 kts 248°
2026-04-22 20:25 45.65318 12.20442 54 ft 7 kts 248°
2026-04-22 20:25 45.65343 12.20392 59 ft 8 kts 334°
2026-04-22 20:26 45.65368 12.20377 61 ft 3 kts 339°
2026-04-22 20:26 45.65371 12.20376 61 ft 0 kts 339°